Time,TemperatureF,DewpointF,PressureIn,WindDirection,WindDirectionDegrees,WindSpeedMPH,WindSpeedGustMPH,Humidity,HourlyPrecipIn,Conditions,Clouds,dailyrainin,SolarRadiationWatts/m^2,SoftwareType,DateUTC
2013-08-17 00:03:00,60.0,56.0,-100.00,NW,322,1.0,5.0,87,0.00,,,0.04,0.000000,,2013-08-17 04:03:00,
2013-08-17 00:44:00,59.0,56.0,-100.00,North,349,2.0,5.0,91,0.00,,,0.04,0.000000,,2013-08-17 04:44:00,
2013-08-17 00:53:00,59.0,56.0,-100.00,North,349,2.0,5.0,91,0.00,,,0.04,0.000000,,2013-08-17 04:53:00,
2013-08-17 01:03:00,59.0,56.0,-100.00,North,349,2.0,5.0,91,0.00,,,0.04,0.000000,,2013-08-17 05:03:00,
2013-08-17 01:42:00,59.0,57.0,-100.00,NW,322,2.0,4.0,93,0.00,,,0.04,0.000000,,2013-08-17 05:42:00,
2013-08-17 01:52:00,59.0,57.0,-100.00,NW,322,2.0,4.0,93,0.00,,,0.04,0.000000,,2013-08-17 05:52:00,
2013-08-17 02:01:00,59.0,57.0,-100.00,NW,322,2.0,4.0,93,0.00,,,0.04,0.000000,,2013-08-17 06:01:00,
2013-08-17 02:42:00,58.0,57.0,-100.00,North,352,2.0,4.0,95,0.00,,,0.04,0.000000,,2013-08-17 06:42:00,
2013-08-17 02:52:00,58.0,57.0,-100.00,North,352,2.0,4.0,95,0.00,,,0.04,0.000000,,2013-08-17 06:52:00,
2013-08-17 03:01:00,58.0,57.0,-100.00,North,352,2.0,4.0,95,0.00,,,0.04,0.000000,,2013-08-17 07:01:00,
2013-08-17 03:42:00,59.0,57.0,-100.00,NNW,327,2.0,4.0,94,0.00,,,0.04,0.000000,,2013-08-17 07:42:00,
2013-08-17 03:52:00,59.0,57.0,-100.00,NNW,327,2.0,4.0,94,0.00,,,0.04,0.000000,,2013-08-17 07:52:00,
2013-08-17 04:02:00,59.0,57.0,-100.00,NNW,327,2.0,4.0,94,0.00,,,0.04,0.000000,,2013-08-17 08:02:00,
2013-08-17 04:42:00,61.0,57.0,-100.00,NNE,25,2.0,7.0,86,0.00,,,0.04,0.000000,,2013-08-17 08:42:00,
2013-08-17 04:52:00,61.0,57.0,-100.00,NNE,25,2.0,7.0,86,0.00,,,0.04,0.000000,,2013-08-17 08:52:00,
2013-08-17 05:02:00,61.0,57.0,-100.00,NNE,25,2.0,7.0,86,0.00,,,0.04,0.000000,,2013-08-17 09:02:00,
2013-08-17 05:43:00,60.0,57.0,-100.00,ESE,104,1.0,4.0,91,0.00,,,0.04,0.000000,,2013-08-17 09:43:00,
2013-08-17 05:53:00,60.0,57.0,-100.00,ESE,104,1.0,4.0,91,0.00,,,0.04,0.000000,,2013-08-17 09:53:00,
2013-08-17 06:03:00,60.0,57.0,-100.00,ESE,104,1.0,4.0,91,0.00,,,0.04,0.000000,,2013-08-17 10:03:00,
2013-08-17 06:42:00,59.0,57.0,-100.00,NNW,345,1.0,4.0,92,0.00,,,0.04,0.000000,,2013-08-17 10:42:00,
2013-08-17 06:53:00,59.0,57.0,-100.00,NNW,345,1.0,4.0,92,0.00,,,0.04,0.000000,,2013-08-17 10:53:00,
2013-08-17 07:02:00,59.0,57.0,-100.00,NNW,345,1.0,4.0,92,0.00,,,0.04,0.000000,,2013-08-17 11:02:00,
2013-08-17 07:42:00,59.0,57.0,-100.00,NNE,29,1.0,2.0,94,0.00,,,0.04,0.000000,,2013-08-17 11:42:00,
2013-08-17 07:52:00,59.0,57.0,-100.00,NNE,29,1.0,2.0,94,0.00,,,0.04,0.000000,,2013-08-17 11:52:00,
2013-08-17 08:01:00,59.0,57.0,-100.00,NNE,29,1.0,2.0,94,0.00,,,0.04,0.000000,,2013-08-17 12:01:00,
2013-08-17 08:42:00,60.0,58.0,-100.00,ESE,108,0.0,3.0,93,0.00,,,0.04,36.000000,,2013-08-17 12:42:00,
2013-08-17 08:52:00,60.0,58.0,-100.00,ESE,108,0.0,3.0,93,0.00,,,0.04,36.000000,,2013-08-17 12:52:00,
2013-08-17 09:02:00,60.0,58.0,-100.00,ESE,108,0.0,3.0,93,0.00,,,0.04,36.000000,,2013-08-17 13:02:00,
2013-08-17 09:42:00,64.0,58.0,-100.00,ENE,72,1.0,4.0,82,0.00,,,0.02,142.000000,,2013-08-17 13:42:00,
2013-08-17 09:52:00,64.0,58.0,-100.00,ENE,72,1.0,4.0,82,0.00,,,0.02,142.000000,,2013-08-17 13:52:00,
2013-08-17 10:01:00,64.0,58.0,-100.00,ENE,72,1.0,4.0,82,0.00,,,0.02,142.000000,,2013-08-17 14:01:00,
2013-08-17 10:42:00,66.0,58.0,-100.00,South,173,2.0,4.0,76,0.00,,,0.01,205.000000,,2013-08-17 14:42:00,
2013-08-17 10:52:00,66.0,58.0,-100.00,South,173,2.0,4.0,76,0.00,,,0.01,205.000000,,2013-08-17 14:52:00,
2013-08-17 11:01:00,66.0,58.0,-100.00,South,173,2.0,4.0,76,0.00,,,0.01,205.000000,,2013-08-17 15:01:00,
2013-08-17 11:44:00,65.0,57.0,-100.00,South,185,2.0,5.0,76,0.00,,,0.01,215.000000,,2013-08-17 15:44:00,
2013-08-17 11:54:00,65.0,57.0,-100.00,South,185,2.0,5.0,76,0.00,,,0.01,215.000000,,2013-08-17 15:54:00,
2013-08-17 12:03:00,65.0,57.0,-100.00,South,185,2.0,5.0,76,0.00,,,0.01,215.000000,,2013-08-17 16:03:00,
2013-08-17 12:42:00,64.0,58.0,-100.00,SE,131,2.0,9.0,80,0.00,,,0.00,111.000000,,2013-08-17 16:42:00,
2013-08-17 12:53:00,64.0,58.0,-100.00,SE,131,2.0,9.0,80,0.00,,,0.00,111.000000,,2013-08-17 16:53:00,
2013-08-17 13:02:00,64.0,58.0,-100.00,SE,131,2.0,9.0,80,0.00,,,0.00,111.000000,,2013-08-17 17:02:00,
2013-08-17 13:42:00,64.0,58.0,-100.00,East,86,2.0,6.0,81,0.00,,,0.00,136.000000,,2013-08-17 17:42:00,
2013-08-17 13:52:00,64.0,58.0,-100.00,East,86,2.0,6.0,81,0.00,,,0.00,136.000000,,2013-08-17 17:52:00,
2013-08-17 14:02:00,64.0,58.0,-100.00,East,86,2.0,6.0,81,0.00,,,0.00,136.000000,,2013-08-17 18:02:00,
2013-08-17 14:42:00,64.0,59.0,-100.00,SSW,202,2.0,6.0,84,0.00,,,0.00,81.000000,,2013-08-17 18:42:00,
2013-08-17 14:52:00,64.0,59.0,-100.00,SSW,202,2.0,6.0,84,0.00,,,0.00,81.000000,,2013-08-17 18:52:00,
2013-08-17 15:02:00,64.0,59.0,-100.00,SSW,202,2.0,6.0,84,0.00,,,0.00,81.000000,,2013-08-17 19:02:00,
2013-08-17 15:42:00,65.0,61.0,-100.00,SSW,193,3.0,7.0,86,0.00,,,0.00,114.000000,,2013-08-17 19:42:00,
2013-08-17 15:52:00,65.0,61.0,-100.00,SSW,193,3.0,7.0,86,0.00,,,0.00,114.000000,,2013-08-17 19:52:00,
2013-08-17 16:02:00,65.0,61.0,-100.00,SSW,193,3.0,7.0,86,0.00,,,0.00,114.000000,,2013-08-17 20:02:00,
2013-08-17 16:42:00,65.0,60.0,-100.00,SSW,193,3.0,8.0,84,0.00,,,0.00,111.000000,,2013-08-17 20:42:00,
2013-08-17 16:52:00,65.0,60.0,-100.00,SSW,193,3.0,8.0,84,0.00,,,0.00,111.000000,,2013-08-17 20:52:00,
2013-08-17 17:01:00,65.0,60.0,-100.00,SSW,193,3.0,8.0,84,0.00,,,0.00,111.000000,,2013-08-17 21:01:00,
2013-08-17 17:42:00,63.0,62.0,-100.00,WSW,242,1.0,6.0,96,0.17,,,0.17,33.000000,,2013-08-17 21:42:00,
2013-08-17 17:54:00,63.0,62.0,-100.00,WSW,242,1.0,6.0,96,0.17,,,0.17,33.000000,,2013-08-17 21:54:00,
2013-08-17 18:03:00,63.0,62.0,-100.00,WSW,242,1.0,6.0,96,0.17,,,0.17,33.000000,,2013-08-17 22:03:00,
2013-08-17 18:42:00,62.0,61.0,-100.00,SSE,167,3.0,12.0,95,0.17,,,0.34,42.000000,,2013-08-17 22:42:00,
2013-08-17 18:52:00,62.0,61.0,-100.00,SSE,167,3.0,12.0,95,0.17,,,0.34,42.000000,,2013-08-17 22:52:00,
2013-08-17 19:02:00,62.0,61.0,-100.00,SSE,167,3.0,12.0,95,0.17,,,0.34,42.000000,,2013-08-17 23:02:00,
2013-08-17 19:42:00,62.0,61.0,-100.00,WSW,239,3.0,5.0,95,0.00,,,0.34,49.000000,,2013-08-17 23:42:00,
2013-08-17 19:52:00,62.0,61.0,-100.00,WSW,239,3.0,5.0,95,0.00,,,0.34,49.000000,,2013-08-17 23:52:00,
2013-08-17 20:01:00,62.0,61.0,-100.00,WSW,239,3.0,5.0,95,0.00,,,0.34,49.000000,,2013-08-18 00:01:00,
2013-08-17 20:42:00,62.0,61.0,-100.00,SSE,152,2.0,6.0,96,0.06,,,0.40,9.000000,,2013-08-18 00:42:00,
2013-08-17 20:52:00,62.0,61.0,-100.00,SSE,152,2.0,6.0,96,0.06,,,0.40,9.000000,,2013-08-18 00:52:00,
2013-08-17 21:01:00,62.0,61.0,-100.00,SSE,152,2.0,6.0,96,0.06,,,0.40,9.000000,,2013-08-18 01:01:00,
2013-08-17 21:42:00,62.0,61.0,-100.00,North,10,2.0,4.0,96,0.01,,,0.41,1.000000,,2013-08-18 01:42:00,
2013-08-17 21:52:00,62.0,61.0,-100.00,North,10,2.0,4.0,96,0.01,,,0.41,1.000000,,2013-08-18 01:52:00,
2013-08-17 22:02:00,62.0,61.0,-100.00,North,10,2.0,4.0,96,0.01,,,0.41,1.000000,,2013-08-18 02:02:00,
2013-08-17 22:42:00,62.0,61.0,-100.00,South,174,1.0,4.0,97,0.02,,,0.43,0.000000,,2013-08-18 02:42:00,
2013-08-17 22:52:00,62.0,61.0,-100.00,South,174,1.0,4.0,97,0.02,,,0.43,0.000000,,2013-08-18 02:52:00,
2013-08-17 23:02:00,62.0,61.0,-100.00,South,174,1.0,4.0,97,0.02,,,0.43,0.000000,,2013-08-18 03:02:00,
2013-08-17 23:43:00,62.0,61.0,-100.00,SSW,201,2.0,6.0,97,0.00,,,0.43,0.000000,,2013-08-18 03:43:00,
2013-08-17 23:53:00,62.0,61.0,-100.00,SSW,201,2.0,6.0,97,0.00,,,0.43,0.000000,,2013-08-18 03:53:00,